FENGYUN 1C DEB

Satellite information

Favourite Embed

Satellite Type and Status

DEBRISIN ORBIT

Key statistics

Satellite FENGYUN 1C DEB at a glance.

Uptime

9555

Days in orbit

Revolutions

≈ 13.7

Per day

Orbit

SSO

Sun Synchronous Orbit

Inclination

102.7

Latest

Satellite identification and parameters

Extended collection of information and parameters for FENGYUN 1C DEB.

Object identification

Identified? True

Debris? True

Object name: FENGYUN 1C DEB

International designator: 1999-025DZX

Object number (NORAD): 36701

Object ID (CCSDS): 36701

Country: PEOPLES REPUBLIC OF CHINA (PRC)

Current information (Y/N): Y

RCS size: SMALL

Orbital parameters

Period: 105.099 minutes

Inclination: 102.7444 deg

SMA: 7377.211 km

Apoapsis: 1190.767 km

Periapsis: 807.385 km

RAAN: 88.4966 deg

Eccentricy: 0.0259842

Argument of periapsis: 258.4488 deg

Mean anomaly: 98.7371 deg

Mean motion: 13.70138422 rev/day

Mean motion (dot): 0.00001289 rev/day2

B* drag term: 0.0012181 1/REarth

Two-line elements (TLE)

Creation date: July 5, 2025, 4:36 a.m.

Reference frame: TEME

Reference center: EARTH

Epoch: July 4, 2025, 11:10 p.m. UTC

TLE line 0: 0 FENGYUN 1C DEB

TLE line 1: 1 36701U 99025DZX 25185.96594097 .00001289 00000-0 12181-2 0 9997

TLE line 2: 2 36701 102.7444 88.4966 0259842 258.4488 98.7371 13.70138422589368

Live tracking on map

Real-time ground track for satellite FENGYUN 1C DEB.

In-orbit conjunctions

A list of the most updated potential collisions computed for object FENGYUN 1C DEB.

Target Orbit TCA Probability of collision Miss distance Type
DELTA 1 DEB SSO 2025-05-15 07:14:11 0.0001250692 260.0 (m) DEBRIS
COSMOS 2173 LEO 2025-05-15 03:52:19 0.0002987725 933.0 (m) PAYLOAD
CZ-6A DEB LEO 2024-11-10 16:49:02 0.0006042963 102.0 (m) DEBRIS

Associated space launch

Chinese polar orbiting meteorological satellite

FENGYUN 1C DEB was lifted into orbit during the mission ‘Long March 4B | Feng Yun 1C’, on board a Long March 4B space rocket.

The launch took place on May 10, 1999, 1:33 a.m. from Launch Complex 7.

For more information about the launch, click the button.

Launch to space Long March 4B | Feng Yun 1C
Long March 4B | Feng Yun 1C

Agency: N/A

Status: Launch Successful

Launch date: May 10, 1999, 1:33 a.m. UTC

Rocket: Long March 4B

Launch pad: Launch Complex 7

Location: Taiyuan Satellite Launch Center, People's Republic of China

...

Latest news about this satellite

There are no fresh news available about this satellite. Check back as we update our databases every day.


Newsletter sign-up

Weekly statistics, charts and insights to help you stay on top of the space industry.